Weather History for Winter Haven, FL

Change the Weather History Date:

Tuesday, December 11, 2012

  Actual Average Record
Temperature  
Mean Temperature 73 °F -  
Max Temperature 80 °F 75 °F 88 °F (1985)
Min Temperature 66 °F 54 °F 27 °F (1962)
Cooling Degree Days 8    
Growing Degree Days 23 (Base 50)    
Moisture  
Dew Point 69 °F    
Average Humidity 91    
Maximum Humidity 100    
Minimum Humidity 71    
Precipitation  
Precipitation 0.03 in - - ()
Sea Level Pressure  
Sea Level Pressure 29.97 in    
Wind  
Wind Speed 6 mph (SSW)    
Max Wind Speed 10 mph    
Max Gust Speed -    
Visibility 8 miles    
Events Rain    
Averages and records for this station are not official NWS values.
T = Trace of Precipitation, MM = Missing Value Source: NWS Daily Summary

Daily Weather History Graph

Daily Weather History Graph

Search for Another Location

Airport:

Trip Planner

Search our weather history database for the weather conditions in past years. The results will help you decide how hot, cold, wet, or windy it might be!

Date:

Astronomy

Dec. 11, 2012 Rise Set
Actual Time 7:08 AM EST 5:32 PM EST
Civil Twilight 6:42 AM EST 5:58 PM EST
Nautical Twilight 6:13 AM EST 6:27 PM EST
Astronomical Twilight 5:45 AM EST 6:56 PM EST
Moon 5:06 AM EST (12/11) 4:06 PM EST (12/11)
Length of Visible Light 11h 15m
Length of Day
10h 23m
Waning Crescent, 4% of the Moon is Illuminated
Dec 11
Waning Crescent
Dec 13
New
Dec 20
First Quarter
Dec 28
Full
Jan 4
Last Quarter

Hourly Weather History & Observations

Time (EST) Temp. Heat Index Dew Point Humidity Pressure Visibility Wind Dir Wind Speed Gust Speed Precip Events Conditions
12:53 AM 68.0 °F - 66.0 °F 93% 29.91 in 10.0 mi SSW 5.8 mph - N/A   Mostly Cloudy
1:53 AM 68.0 °F - 66.0 °F 93% 29.94 in 10.0 mi SSW 8.1 mph - N/A   Clear
2:48 AM 68.0 °F - 66.2 °F 94% 29.93 in 10.0 mi South 8.1 mph - N/A   Partly Cloudy
2:53 AM 68.0 °F - 66.9 °F 96% 29.92 in 10.0 mi South 5.8 mph - N/A   Partly Cloudy
3:41 AM 68.0 °F - 66.0 °F 93% 29.93 in 10.0 mi South 5.8 mph - N/A   Scattered Clouds
3:53 AM 68.0 °F - 66.0 °F 93% 29.93 in 10.0 mi SSW 4.6 mph - N/A   Clear
4:53 AM 66.9 °F - 66.0 °F 97% 29.93 in 10.0 mi South 4.6 mph - N/A   Clear
5:43 AM 68.0 °F - 66.9 °F 96% 29.93 in 7.0 mi South 5.8 mph - N/A   Scattered Clouds
5:53 AM 68.0 °F - 66.9 °F 96% 29.93 in 7.0 mi South 4.6 mph - N/A   Mostly Cloudy
6:11 AM 70.0 °F - 68.0 °F 93% 29.93 in 6.0 mi South 6.9 mph - N/A   Overcast
6:22 AM 70.0 °F - 69.1 °F 97% 29.94 in 3.0 mi SSW 6.9 mph - N/A   Overcast
6:24 AM 70.0 °F - 69.1 °F 97% 29.94 in 2.0 mi SSW 5.8 mph - N/A   Overcast
6:27 AM 69.1 °F - 69.1 °F 100% 29.94 in 1.5 mi SSW 8.1 mph - N/A   Overcast
6:45 AM 69.1 °F - 69.1 °F 100% 29.95 in 2.0 mi SW 5.8 mph - N/A   Overcast
6:53 AM 69.1 °F - 69.1 °F 100% 29.95 in 2.0 mi SW 5.8 mph - N/A   Overcast
7:06 AM 69.1 °F - 69.1 °F 100% 29.95 in 3.0 mi SSW 6.9 mph - N/A   Overcast
7:53 AM 70.0 °F - 69.1 °F 97% 29.97 in 4.0 mi SSW 4.6 mph - N/A   Overcast
8:24 AM 70.0 °F - 69.1 °F 97% 29.98 in 3.0 mi West 6.9 mph - N/A   Overcast
8:41 AM 71.1 °F - 69.1 °F 93% 29.99 in 6.0 mi WSW 3.5 mph - N/A   Overcast
8:53 AM 71.1 °F - 69.1 °F 93% 29.99 in 7.0 mi SW 4.6 mph - N/A   Overcast
9:02 AM 71.1 °F - 69.1 °F 93% 30.00 in 9.0 mi SW 8.1 mph - N/A   Overcast
9:36 AM 72.0 °F - 69.1 °F 91% 30.00 in 10.0 mi Variable 4.6 mph - N/A   Scattered Clouds
9:53 AM 73.0 °F - 69.1 °F 87% 29.99 in 10.0 mi SW 6.9 mph - N/A   Clear
10:53 AM 78.1 °F - 70.0 °F 76% 30.01 in 10.0 mi SW 4.6 mph - N/A   Clear
11:53 AM 77.0 °F - 70.0 °F 79% 30.01 in 10.0 mi WSW 6.9 mph - N/A   Overcast
12:53 PM 80.1 °F 83.2 °F 70.0 °F 71% 29.97 in 10.0 mi SW 8.1 mph - N/A   Mostly Cloudy
1:53 PM 78.1 °F - 70.0 °F 76% 29.96 in 10.0 mi SW 9.2 mph - N/A   Mostly Cloudy
2:42 PM 79.0 °F - 71.1 °F 77% 29.96 in 10.0 mi SW 8.1 mph - N/A   Mostly Cloudy
2:50 PM 78.8 °F - 69.8 °F 74% 29.96 in 10.0 mi SW 10.4 mph - N/A   Mostly Cloudy
2:53 PM 78.1 °F - 69.1 °F 74% 29.96 in 10.0 mi WSW 8.1 mph - N/A   Mostly Cloudy
3:53 PM 77.0 °F - 70.0 °F 79% 29.96 in 10.0 mi SSW 3.5 mph - N/A   Mostly Cloudy
4:53 PM 75.0 °F - 71.1 °F 87% 29.98 in 6.0 mi SW 8.1 mph - 0.01 in Rain Light Rain
5:53 PM 73.0 °F - 70.0 °F 90% 29.97 in 10.0 mi SSE 3.5 mph - 0.02 in   Partly Cloudy
7:53 PM 71.1 °F - 70.0 °F 96% 30.01 in 6.0 mi Calm Calm - N/A   Clear
8:53 PM 71.1 °F - 70.0 °F 96% 30.03 in 7.0 mi SSE 3.5 mph - N/A   Clear
9:53 PM 71.1 °F - 70.0 °F 96% 30.04 in 9.0 mi WNW 3.5 mph - N/A   Clear
10:53 PM 71.1 °F - 70.0 °F 96% 30.04 in 6.0 mi Calm Calm - N/A   Mostly Cloudy
11:53 PM 71.1 °F - 70.0 °F 96% 30.04 in 7.0 mi Calm Calm - N/A   Mostly Cloudy